[[{"header":{"parameterUnit":"m.s-1","parameterCategory":1,"la1":30.2991,"la2":30.254,"lo1":-89.0895,"lo2":-89.0444,"dy":0.0017,"dx":0.0017,"nx":28,"ny":28,"refTime":"2024-06-30T09:00:00:Z","depth":0,"parameterNumber":2,"parameterNumberName":"U-component_of_WINDS"},"data":[0,0,0,0,0,0,0,0,0,0,0,0,0,0,0,0,0,0,0,0,0,0,0,0,0,0,0,0,0,0,0,0,0,0,0,0,0,0,0,0,0,0,0,0,0,0,0,0,0,0,0,0,0,0,0,0,0,0,1.9269,1.927,0,1.936,1.9361,1.9362,1.9365,1.9364,1.9363,1.9362,1.946,1.9464,1.9467,0,0,0,0,0,0,0,0,0,0,0,0,0,1.91,1.9103,1.9269,1.927,1.9271,1.936,1.9361,1.9363,1.9366,1.9364,1.9363,1.9362,1.9459,1.9463,1.9468,0,0,0,0,0,0,0,0,0,0,0,0,0,1.9181,1.9104,1.9268,1.9283,1.9285,1.936,1.9361,1.9363,1.9366,1.9364,1.9362,1.9361,1.9458,1.9463,1.9468,1.9536,0,0,1.9485,1.9487,0,0,0,0,0,0,0,0,1.9176,1.9187,1.928,1.9282,1.9285,1.935,1.9338,1.9421,1.9366,1.9335,1.9362,1.936,1.9425,1.9433,1.9454,1.9541,1.9545,1.9486,1.9489,1.9491,1.9493,0,0,0,0,0,0,0,1.9171,1.9183,1.9305,1.9281,1.9284,1.9286,1.9296,1.9354,1.9389,1.9338,1.9338,1.9349,1.9426,1.9449,1.9456,1.9546,1.9485,1.949,1.9494,1.9496,1.9693,1.9695,0,0,0,0,0,0,1.9161,1.9178,1.9302,1.9308,1.9225,1.9291,1.9301,1.9331,1.9388,1.9395,1.935,1.9349,1.944,1.945,1.946,1.9543,1.9491,1.9496,1.95,1.9691,1.9694,1.9696,0,0,0,0,0,0,1.9158,1.9172,1.9298,1.9243,1.9259,1.9295,1.9328,1.9333,1.9356,1.9397,1.9404,1.9367,1.9439,1.9452,1.9517,1.9546,1.9499,1.9504,1.9689,1.9692,1.9695,1.971,0,0,0,0,0,0,1.9153,1.9171,1.9196,1.9244,1.9262,1.9352,1.933,1.9336,1.9365,1.9364,1.9415,1.9421,1.9439,1.9509,1.9522,1.9553,1.9508,1.9687,1.969,1.9694,1.9707,1.9713,1.9718,0,0,0,0,0,1.9147,1.9197,1.9197,1.9212,1.9294,1.9354,1.9365,1.9383,1.9367,1.9393,1.942,1.942,1.9541,1.9515,1.9531,1.9564,1.9685,1.9689,1.9694,1.9704,1.9712,1.9718,0,0,0,0,0,0,1.9154,1.9204,1.9204,1.9271,1.9308,1.9354,1.9388,1.939,1.9433,1.9431,1.9452,1.9464,1.9528,1.9553,1.9523,1.9632,1.9611,1.9619,1.9614,1.9621,1.9627,1.962,1.9513,0,0,0,0,0,1.9163,1.9206,1.9248,1.9303,1.9322,1.9352,1.9379,1.9389,1.9429,1.9445,1.9476,1.9516,1.9563,1.9594,1.9639,1.971,1.9722,1.9741,1.9746,1.9751,1.9757,1.9797,1.9806,1.971,1.971,1.971,0,0,1.9183,1.9215,1.9241,1.9306,1.9335,1.9381,1.9365,1.9414,1.9448,1.9453,1.9515,1.954,1.9586,1.9654,1.9685,1.9676,1.9786,1.9756,1.9759,1.9764,1.9802,1.9811,1.9819,1.9713,1.9713,1.9712,0,0,1.9241,1.927,1.932,1.935,1.9395,1.9414,1.9426,1.9472,1.9488,1.9551,1.9555,1.9597,1.9678,1.971,1.9737,1.9809,1.9811,1.9823,1.9853,1.9891,1.9899,1.9906,1.9931,1.994,1.983,1.983,1.983,0,1.926,1.9328,1.9345,1.9394,1.9422,1.9427,1.9478,1.9507,1.9565,1.9585,1.9574,1.9675,1.9706,1.9782,1.9799,1.9821,1.9836,1.9818,1.9896,1.9903,1.991,1.9935,1.9944,1.9831,1.9831,1.9831,1.9831,0,1.9349,1.9396,1.9431,1.9486,1.9518,1.9568,1.9593,1.9625,1.9633,1.9654,1.9718,1.9756,1.9809,1.9828,1.9837,1.9906,1.9898,1.9891,1.9871,1.992,1.9944,1.9953,1.9833,1.9832,1.9832,1.9832,0,0,1.9415,1.9478,1.9491,1.9516,1.9566,1.9603,1.9654,1.9704,1.9731,1.9771,1.9814,1.9882,1.9876,1.9907,1.992,1.9953,2.0008,1.9942,1.9944,1.9953,2.0087,2.0091,2.0102,2.0009,2.0011,2.0013,2.0083,0,1.9479,1.9567,1.9584,1.9662,1.9706,1.9711,1.9755,1.9792,1.9813,1.9855,1.9879,1.9927,1.9915,1.9933,1.9967,1.9994,2.0035,1.9989,2.0051,2.0053,2.0039,2.0114,2.012,2.0184,2.0092,2.0094,2.0095,0,1.9566,1.9607,1.9688,1.9733,1.9752,1.9791,1.9839,1.9879,1.992,1.9934,1.9968,1.9977,2.0031,2.0007,2.0082,2.0051,2.0077,2.0094,2.0097,2.0104,2.0077,2.0123,2.0205,2.0214,2.011,2.0108,2.0107,0,1.9606,1.9682,1.974,1.9761,1.9815,1.9842,1.9866,1.9906,1.9935,1.9978,1.9998,2.0047,2.0074,2.0112,2.0134,2.0115,2.0208,2.0186,2.0221,2.022,2.024,2.0238,2.0327,2.0257,2.0257,2.0257,2.0257,0,1.9676,1.9725,1.9758,1.9794,1.985,1.987,1.9925,1.9949,1.9985,2.0026,2.0035,2.0074,2.0101,2.0144,2.0162,2.0222,2.0234,2.0247,2.0251,2.0246,2.0244,2.0263,2.026,2.0259,2.0259,2.0258,2.0258,0,1.9729,1.9753,1.9817,1.9863,1.9875,1.9915,1.9954,1.999,2.0011,2.0064,2.0077,2.0111,2.0163,2.0189,2.0253,2.0265,2.0332,2.0334,2.0318,2.0319,2.0352,2.0349,2.0456,2.0471,2.0392,2.0392,2.0393,0,1.9772,1.981,1.9859,1.9887,1.9911,1.9956,1.9986,2.0008,2.0039,2.0089,2.0119,2.0171,2.0213,2.0295,2.0326,2.0376,2.0379,2.0413,2.0386,2.038,2.0379,2.0376,2.038,2.0418,2.0418,2.0419,2.0419,0,1.9846,1.9856,1.9898,1.9945,1.998,2.0019,2.0056,2.0079,2.0107,2.0142,2.0194,2.0226,2.0291,2.0343,2.0394,2.042,2.0425,2.0428,2.0438,2.0433,2.0422,2.0428,2.033,2.0425,2.0424,2.0424,2.0424,2.0424,1.9896,1.993,1.997,2.0017,2.0047,2.0082,2.0118,2.0144,2.0187,2.0241,2.0251,2.0306,2.0348,2.0418,2.0445,2.0489,2.0482,2.0498,2.0501,2.0505,2.0506,2.0415,2.0499,2.0499,2.0499,2.0499,2.0499,0,1.997,1.9995,2.0039,2.0091,2.0128,2.0128,2.017,2.0201,2.0249,2.0287,2.0328,2.0388,2.0438,2.0473,2.0524,2.0553,2.0556,2.0566,2.0563,2.0569,2.051,2.0495,2.0562,2.0562,2.0562,2.0562,2.0562,2.0562,2.0012,2.007,2.0085,2.0158,2.0185,2.0238,2.0262,2.0294,2.0325,2.0391,2.0432,2.0454,2.0491,2.0545,2.0591,2.06,2.0618,2.0627,2.0637,2.058,2.0574,2.0567,2.0554,2.0631,2.0631,2.0692,2.0693,2.0693]},{"header":{"parameterUnit":"m.s-1","parameterCategory":1,"la1":30.2991,"la2":30.254,"lo1":-89.0895,"lo2":-89.0444,"dy":0.0017,"dx":0.0017,"nx":28,"ny":28,"refTime":"2024-06-30T09:00:00:Z","depth":0,"parameterNumber":3,"parameterNumberName":"V-component_of_WINDS"},"data":[0,0,0,0,0,0,0,0,0,0,0,0,0,0,0,0,0,0,0,0,0,0,0,0,0,0,0,0,0,0,0,0,0,0,0,0,0,0,0,0,0,0,0,0,0,0,0,0,0,0,0,0,0,0,0,0,0,0,2.5237,2.5236,0,2.5215,2.5215,2.5215,2.5157,2.5155,2.5154,2.5153,2.5129,2.5129,2.513,0,0,0,0,0,0,0,0,0,0,0,0,0,2.5223,2.5223,2.5237,2.5236,2.5236,2.5215,2.5215,2.5215,2.5157,2.5155,2.5154,2.5152,2.5129,2.5129,2.513,0,0,0,0,0,0,0,0,0,0,0,0,0,2.5218,2.5223,2.5237,2.5205,2.5202,2.5216,2.5215,2.5215,2.5157,2.5155,2.5153,2.5152,2.5128,2.5129,2.513,2.5172,0,0,2.5132,2.5133,0,0,0,0,0,0,0,0,2.5218,2.5218,2.521,2.5207,2.5204,2.5187,2.5201,2.52,2.5158,2.5174,2.5153,2.5151,2.5149,2.5148,2.5148,2.5171,2.517,2.5132,2.5133,2.5133,2.5134,0,0,0,0,0,0,0,2.5219,2.5219,2.5228,2.521,2.5206,2.519,2.5187,2.5201,2.5172,2.5172,2.5168,2.5167,2.5147,2.5148,2.5147,2.517,2.5132,2.5133,2.5134,2.5134,2.5221,2.5223,0,0,0,0,0,0,2.5224,2.522,2.5229,2.5227,2.5206,2.5192,2.5189,2.5194,2.5172,2.5167,2.5168,2.5164,2.5147,2.5147,2.5146,2.5191,2.5133,2.5134,2.5134,2.522,2.5222,2.5224,0,0,0,0,0,0,2.5224,2.5225,2.523,2.5222,2.5222,2.5194,2.52,2.5195,2.5195,2.5169,2.5163,2.5174,2.5146,2.5145,2.5165,2.5189,2.5134,2.5135,2.5217,2.522,2.5223,2.5282,0,0,0,0,0,0,2.5224,2.5226,2.5243,2.5223,2.5222,2.5251,2.5202,2.5196,2.5197,2.5191,2.5173,2.5168,2.5144,2.5165,2.5166,2.5189,2.5136,2.5215,2.5219,2.5222,2.5278,2.5287,2.5294,0,0,0,0,0,2.5223,2.5261,2.5244,2.5245,2.5243,2.5252,2.5251,2.5224,2.5199,2.5214,2.5197,2.5169,2.5187,2.5167,2.5169,2.5192,2.5213,2.5218,2.5222,2.5274,2.5285,2.5294,0,0,0,0,0,0,2.5284,2.5258,2.5239,2.5271,2.5264,2.5242,2.5261,2.5237,2.5236,2.5231,2.5196,2.5193,2.5216,2.5207,2.5185,2.523,2.5195,2.52,2.5235,2.5245,2.5253,2.5253,2.5136,0,0,0,0,0,2.5301,2.5311,2.5288,2.5319,2.5316,2.529,2.5293,2.5272,2.5263,2.526,2.5244,2.5236,2.5239,2.5242,2.5244,2.5277,2.527,2.5294,2.5302,2.5309,2.5312,2.5325,2.5334,2.5237,2.5237,2.5237,0,0,2.5336,2.5323,2.5332,2.533,2.5322,2.5332,2.5287,2.5301,2.5306,2.5261,2.5278,2.5267,2.5255,2.528,2.5291,2.5273,2.5337,2.5314,2.532,2.5319,2.533,2.5339,2.5347,2.524,2.524,2.5239,0,0,2.5404,2.5398,2.542,2.5413,2.5402,2.5383,2.5389,2.537,2.536,2.5377,2.5342,2.5349,2.5357,2.5348,2.5345,2.5408,2.538,2.541,2.5451,2.5463,2.5471,2.5477,2.5495,2.5503,2.5414,2.5414,2.5414,0,2.5449,2.5463,2.5435,2.5449,2.5447,2.5408,2.5428,2.5423,2.5413,2.5412,2.5392,2.5399,2.5388,2.5409,2.5424,2.5425,2.5427,2.541,2.5472,2.5478,2.5484,2.5501,2.5508,2.5417,2.5417,2.5416,2.5416,0,2.5516,2.5527,2.5546,2.5537,2.5538,2.5556,2.5528,2.5533,2.5512,2.5495,2.551,2.5496,2.5493,2.5497,2.5477,2.5514,2.5503,2.5479,2.5442,2.5497,2.5512,2.5519,2.5422,2.5421,2.542,2.5419,0,0,2.5621,2.5595,2.5602,2.5595,2.5579,2.5585,2.56,2.5597,2.56,2.5594,2.5603,2.561,2.5586,2.5582,2.5561,2.5573,2.5618,2.5546,2.5545,2.5556,2.5653,2.5669,2.5677,2.56,2.5602,2.5603,2.5652,0,2.5682,2.5706,2.568,2.5708,2.5715,2.5677,2.5689,2.5679,2.5664,2.5666,2.5648,2.5652,2.5622,2.5619,2.5629,2.561,2.5636,2.5607,2.5605,2.5605,2.5606,2.5685,2.5703,2.5751,2.5659,2.566,2.566,0,2.5756,2.5753,2.5782,2.576,2.5762,2.5774,2.5767,2.5771,2.5758,2.5746,2.5741,2.5715,2.5725,2.5693,2.5704,2.5685,2.5683,2.5673,2.5674,2.567,2.5634,2.568,2.5766,2.5771,2.567,2.5669,2.5669,0,2.5824,2.5827,2.5844,2.584,2.5817,2.5825,2.5816,2.5801,2.58,2.5794,2.5792,2.5788,2.5784,2.578,2.5753,2.5732,2.5766,2.5733,2.5753,2.5754,2.576,2.5759,2.5843,2.5765,2.5765,2.5765,2.5765,0,2.5892,2.5911,2.5873,2.5883,2.5902,2.5871,2.589,2.5876,2.5863,2.5868,2.5835,2.584,2.5806,2.5806,2.5785,2.5795,2.5795,2.5783,2.5776,2.5784,2.5785,2.578,2.5774,2.5767,2.5766,2.5766,2.5766,0,2.597,2.5947,2.5961,2.5938,2.5933,2.5947,2.5926,2.5932,2.5915,2.5921,2.5921,2.5892,2.5891,2.5864,2.5857,2.5843,2.586,2.585,2.5864,2.5859,2.588,2.5877,2.5961,2.5968,2.5889,2.589,2.5891,0,2.6014,2.6027,2.6004,2.6005,2.5997,2.6,2.5998,2.5968,2.5967,2.5952,2.596,2.5956,2.5951,2.595,2.5928,2.5921,2.5908,2.5937,2.5906,2.5912,2.5903,2.5901,2.5901,2.5943,2.5944,2.5945,2.5945,0,2.6092,2.6079,2.6078,2.6072,2.6071,2.6065,2.6057,2.6059,2.6026,2.6026,2.6024,2.602,2.6012,2.6008,2.5997,2.5985,2.5958,2.5956,2.5959,2.5965,2.5972,2.5965,2.5878,2.5953,2.5952,2.5952,2.5951,2.5951,2.6151,2.6159,2.6144,2.6143,2.6133,2.6126,2.613,2.6113,2.6111,2.6102,2.6085,2.6085,2.6068,2.6051,2.6042,2.604,2.6024,2.6031,2.6032,2.6033,2.6035,2.5975,2.6038,2.6038,2.6038,2.6037,2.6037,0,2.6224,2.6212,2.6212,2.62,2.6199,2.6176,2.6165,2.6164,2.6165,2.6153,2.6148,2.6144,2.6139,2.6116,2.6107,2.611,2.6097,2.6108,2.6106,2.6103,2.6052,2.6047,2.6119,2.6119,2.6119,2.6118,2.6118,2.6118,2.6261,2.6273,2.6258,2.6263,2.6251,2.6251,2.6246,2.6238,2.6227,2.6224,2.622,2.6205,2.6188,2.6177,2.617,2.6163,2.616,2.6174,2.6163,2.6115,2.6107,2.61,2.6095,2.6175,2.6175,2.6214,2.6214,2.6215]}]]